Weather History for Melfa, VA

Change the Weather History Date:

Wednesday, November 27, 2013

  Actual Average (KWAL) Record (KWAL)
Temperature  
Mean Temperature 52 °F 46 °F  
Max Temperature 66 °F 55 °F 73 °F (1985)
Min Temperature 39 °F 37 °F 20 °F (1974)
Degree Days  
Heating Degree Days 12    
Month to date heating degree days  
Since 1 July heating degree days  
Cooling Degree Days 0    
Month to date cooling degree days  
Year to date cooling degree days  
Growing Degree Days 2 (Base 50)    
Moisture  
Dew Point 43 °F    
Average Humidity 80    
Maximum Humidity 94    
Minimum Humidity 42    
Precipitation  
Precipitation 1.03 in 0.10 in 0.96 in (2013)
Month to date precipitation 2.57  
Year to date precipitation 37.11  
Sea Level Pressure  
Sea Level Pressure 29.62 in    
Wind  
Wind Speed 17 mph (NW)    
Max Wind Speed 29 mph    
Max Gust Speed 44 mph    
Visibility 7 miles    
Events Rain    
T = Trace of Precipitation, MM = Missing Value Source: NWS Daily Summary

Daily Weather History Graph

Daily Weather History Graph

Search for Another Location

Airport:

Trip Planner

Search our weather history database for the weather conditions in past years. The results will help you decide how hot, cold, wet, or windy it might be!

Date:

Astronomy

Nov. 27, 2013 Rise Set
Actual Time 6:55 AM EST 4:45 PM EST
Civil Twilight 6:26 AM EST 5:14 PM EST
Nautical Twilight 5:54 AM EST 5:46 PM EST
Astronomical Twilight 5:23 AM EST 6:18 PM EST
Moon 1:01 AM EST (11/27) 1:16 PM EST (11/27)
Length of Visible Light 10h 47m
Length of Day
9h 50m
Waning Crescent, 32% of the Moon is Illuminated
Nov 27
Waning Crescent
Dec 2
New
Dec 9
First Quarter
Dec 17
Full
Dec 25
Last Quarter

Hourly Weather History & Observations

Time (EST) Temp. Windchill Dew Point Humidity Pressure Visibility Wind Dir Wind Speed Gust Speed Precip Events Conditions
12:15 AM 66.2 °F - 62.6 °F 88% 29.59 in 7.0 mi South 24.2 mph 32.2 mph 0.01 in   Overcast
12:35 AM 66.2 °F - 62.6 °F 88% 29.59 in 5.0 mi South 21.9 mph 33.4 mph 0.03 in Rain Light Rain
12:55 AM 66.2 °F - 62.6 °F 88% 29.58 in 4.0 mi South 18.4 mph 31.1 mph 0.03 in Rain Light Rain
1:15 AM 64.4 °F - 62.6 °F 94% 29.56 in 4.0 mi South 20.7 mph 32.2 mph 0.03 in Rain Rain
1:35 AM 66.2 °F - 62.6 °F 88% 29.54 in 5.0 mi South 17.3 mph 26.5 mph 0.03 in Rain Light Rain
1:55 AM 66.2 °F - 62.6 °F 88% 29.54 in 4.0 mi South 13.8 mph 29.9 mph 0.04 in   Overcast
2:15 AM 66.2 °F - 62.6 °F 88% 29.53 in 4.0 mi South 17.3 mph 28.8 mph 0.02 in Rain Light Rain
2:35 AM 66.2 °F - 62.6 °F 88% 29.52 in 7.0 mi South 17.3 mph 24.2 mph 0.03 in   Overcast
2:55 AM 64.4 °F - 62.6 °F 94% 29.50 in 7.0 mi South 17.3 mph 26.5 mph 0.03 in   Overcast
3:15 AM 64.4 °F - 62.6 °F 94% 29.50 in 7.0 mi South 9.2 mph 16.1 mph 0.01 in   Overcast
3:35 AM 64.4 °F - 62.6 °F 94% 29.49 in 7.0 mi South 9.2 mph 17.3 mph 0.01 in   Overcast
3:55 AM 64.4 °F - 60.8 °F 88% 29.49 in 3.0 mi South 9.2 mph - 0.01 in   Overcast
4:15 AM 64.4 °F - 60.8 °F 88% 29.48 in 2.5 mi South 10.4 mph 17.3 mph N/A   Overcast
4:35 AM 64.4 °F - 60.8 °F 88% 29.48 in 0.8 mi South 10.4 mph - N/A   Overcast
4:55 AM 64.4 °F - 62.6 °F 94% 29.47 in 1.8 mi South 6.9 mph - N/A   Overcast
5:15 AM 64.4 °F - 62.6 °F 94% 29.47 in 5.0 mi SSW 4.6 mph - N/A   Overcast
5:35 AM 60.8 °F - 57.2 °F 88% 29.49 in 0.8 mi WNW 10.4 mph 21.9 mph N/A   Overcast
5:55 AM 55.4 °F - 51.8 °F 88% 29.50 in 10.0 mi NNW 11.5 mph 19.6 mph N/A Rain Light Rain
6:15 AM 51.8 °F - 48.2 °F 88% 29.52 in 2.5 mi NW 13.8 mph 21.9 mph 0.13 in Rain Heavy Rain
6:35 AM 51.8 °F - 48.2 °F 88% 29.52 in 10.0 mi NW 12.7 mph 19.6 mph 0.16 in Rain Rain
6:55 AM 50.0 °F - 46.4 °F 87% 29.52 in 7.0 mi NNW 10.4 mph 21.9 mph 0.19 in Rain Rain
7:15 AM 48.2 °F - 46.4 °F 93% 29.51 in 7.0 mi NNW 11.5 mph 18.4 mph 0.03 in Rain Rain
7:35 AM 48.2 °F - 46.4 °F 93% 29.51 in 5.0 mi NNW 15.0 mph 21.9 mph 0.05 in   Heavy Drizzle
7:55 AM 48.2 °F - 44.6 °F 87% 29.52 in 7.0 mi NNW 13.8 mph 23.0 mph 0.07 in Rain Rain
8:15 AM 46.4 °F 41.5 °F 44.6 °F 93% 29.51 in 2.5 mi NNW 10.4 mph 20.7 mph 0.07 in Rain Rain
8:35 AM 46.4 °F 41.9 °F 44.6 °F 93% 29.51 in 4.0 mi NNW 9.2 mph 16.1 mph 0.15 in Rain Rain
8:55 AM 46.4 °F 41.5 °F 44.6 °F 93% 29.50 in 10.0 mi NNW 10.4 mph 25.3 mph 0.17 in Rain Light Rain
9:15 AM 46.4 °F 41.1 °F 44.6 °F 93% 29.50 in 7.0 mi NW 11.5 mph 20.7 mph 0.02 in Rain Rain
9:35 AM 46.4 °F 40.1 °F 42.8 °F 87% 29.53 in 4.0 mi NW 15.0 mph 24.2 mph 0.06 in Rain Rain
9:55 AM 46.4 °F 40.4 °F 42.8 °F 87% 29.52 in 1.5 mi NNW 13.8 mph 21.9 mph 0.13 in Rain Heavy Rain
10:15 AM 46.4 °F 39.0 °F 42.8 °F 87% 29.52 in 2.0 mi NNW 19.6 mph 29.9 mph 0.09 in Rain Light Rain
10:35 AM 46.4 °F 39.2 °F 42.8 °F 87% 29.49 in 10.0 mi NNW 18.4 mph 26.5 mph 0.10 in   Light Drizzle
10:56 AM 46.4 °F 39.5 °F 42.8 °F 87% 29.51 in 10.0 mi NNW 17.3 mph 24.2 mph N/A Rain Rain
11:15 AM 46.4 °F 39.8 °F 42.8 °F 87% 29.49 in 7.0 mi NNW 16.1 mph 26.5 mph 0.01 in Rain Rain
11:35 AM 46.4 °F 40.4 °F 42.8 °F 87% 29.50 in 10.0 mi NNW 13.8 mph 23.0 mph 0.04 in Rain Rain
11:55 AM 44.6 °F 38.4 °F 42.8 °F 93% 29.50 in 5.0 mi NW 12.7 mph 26.5 mph 0.10 in Rain Light Rain
12:16 PM 44.6 °F 36.6 °F 41.0 °F 87% 29.50 in 5.0 mi NNW 19.6 mph 25.3 mph 0.02 in Rain Rain
12:35 PM 44.6 °F 37.4 °F 41.0 °F 87% 29.48 in 7.0 mi NNW 16.1 mph 32.2 mph 0.04 in Rain Light Rain
12:56 PM 44.6 °F 37.2 °F 42.8 °F 93% 29.47 in 5.0 mi NW 17.3 mph 25.3 mph N/A Rain Rain
1:15 PM 44.6 °F 37.8 °F 41.0 °F 87% 29.50 in 3.0 mi NW 15.0 mph 27.6 mph 0.04 in Rain Rain
1:55 PM 44.6 °F 36.6 °F 39.2 °F 81% 29.44 in 5.0 mi NNW 19.6 mph 31.1 mph 0.10 in Rain Light Rain
2:15 PM 44.6 °F 37.4 °F 39.2 °F 81% 29.46 in 10.0 mi NNW 16.1 mph 31.1 mph 0.01 in Rain Light Rain
2:35 PM 44.6 °F 35.9 °F 39.2 °F 81% 29.51 in 10.0 mi NW 23.0 mph 31.1 mph 0.02 in   Overcast
2:55 PM 44.6 °F 37.2 °F 39.2 °F 81% 29.53 in 10.0 mi NW 17.3 mph 27.6 mph 0.02 in   Overcast
3:17 PM 44.6 °F 34.9 °F 39.2 °F 81% 29.56 in 10.0 mi NW 28.8 mph 36.8 mph N/A   Overcast
3:35 PM 44.6 °F 35.7 °F 37.4 °F 76% 29.58 in 5.0 mi NW 24.2 mph 38.0 mph N/A   Light Drizzle
3:55 PM 42.8 °F 34.0 °F 39.2 °F 87% 29.61 in 3.0 mi NW 20.7 mph 38.0 mph N/A   Light Drizzle
4:15 PM 42.8 °F 32.5 °F 37.4 °F 81% 29.64 in 7.0 mi NW 28.8 mph 38.0 mph N/A   Overcast
4:35 PM 42.8 °F 32.9 °F 37.4 °F 81% 29.66 in 10.0 mi NW 26.5 mph 40.3 mph N/A Rain Light Rain
4:55 PM 42.8 °F 33.1 °F 37.4 °F 81% 29.67 in 10.0 mi NW 25.3 mph 35.7 mph N/A   Light Drizzle
5:15 PM 42.8 °F 34.5 °F 35.6 °F 76% 29.70 in 10.0 mi NW 18.4 mph 29.9 mph N/A   Overcast
5:35 PM 42.8 °F 35.1 °F 35.6 °F 76% 29.70 in 10.0 mi NW 16.1 mph 28.8 mph N/A   Overcast
5:55 PM 44.6 °F 37.4 °F 35.6 °F 71% 29.72 in 10.0 mi NW 16.1 mph 34.5 mph N/A   Overcast
6:15 PM 44.6 °F 35.7 °F 35.6 °F 71% 29.74 in 10.0 mi NW 24.2 mph 33.4 mph N/A   Overcast
6:35 PM 44.6 °F 35.5 °F 33.8 °F 66% 29.76 in 10.0 mi NW 25.3 mph 34.5 mph N/A   Overcast
6:55 PM 44.6 °F 36.4 °F 33.8 °F 66% 29.78 in 10.0 mi NW 20.7 mph 32.2 mph N/A   Overcast
7:15 PM 44.6 °F 36.9 °F 33.8 °F 66% 29.80 in 10.0 mi WNW 18.4 mph 33.4 mph N/A   Overcast
7:36 PM 44.6 °F 36.9 °F 32.0 °F 61% 29.81 in 10.0 mi NW 18.4 mph 34.5 mph N/A   Overcast
7:55 PM 44.6 °F 35.7 °F 30.2 °F 57% 29.82 in 10.0 mi NW 24.2 mph 34.5 mph N/A   Overcast
8:15 PM 42.8 °F 35.8 °F 30.2 °F 61% 29.83 in 10.0 mi NW 13.8 mph 32.2 mph N/A   Overcast
8:35 PM 42.8 °F 34.5 °F 28.4 °F 57% 29.85 in 10.0 mi NW 18.4 mph 33.4 mph N/A   Overcast
8:55 PM 42.8 °F 33.1 °F 26.6 °F 53% 29.86 in 10.0 mi NW 25.3 mph 35.7 mph N/A   Overcast
9:35 PM 42.8 °F 33.8 °F 26.6 °F 53% 29.89 in 10.0 mi NW 21.9 mph 32.2 mph N/A   Overcast
9:55 PM 42.8 °F 33.3 °F 21.2 °F 42% 29.92 in 10.0 mi NW 24.2 mph 43.7 mph N/A   Overcast
10:17 PM 42.8 °F 33.1 °F 24.8 °F 49% 29.94 in 10.0 mi WNW 25.3 mph 38.0 mph N/A   Overcast
10:35 PM 41.0 °F 31.1 °F 21.2 °F 45% 29.95 in 10.0 mi WNW 23.0 mph 39.1 mph N/A   Overcast
10:55 PM 41.0 °F 30.5 °F 24.8 °F 53% 29.97 in 10.0 mi NW 26.5 mph 33.4 mph N/A   Overcast
11:15 PM 39.2 °F 28.0 °F 21.2 °F 49% 29.99 in 10.0 mi NW 26.5 mph 32.2 mph N/A   Scattered Clouds
11:35 PM 39.2 °F 29.8 °F 21.2 °F 49% 30.01 in 10.0 mi NW 18.4 mph 38.0 mph N/A   Scattered Clouds
11:55 PM 39.2 °F 28.7 °F 21.2 °F 49% 30.03 in 10.0 mi NW 23.0 mph 35.7 mph N/A   Scattered Clouds